When you browse on this site, cookies collect data to enhance your experience and personalize the content and advertising you see.
Visit our Privacy Policy to learn more. By continuing to use the site, you agree to this use of cookies and data.
  • In United Kingdom
  • List of Countries
  • For 7 days
  • Water Temperature
  • Weather Map
  • Weather Widgets
  • user-avatar
    Login

    Hourly Weather Kalgoorlie

    Today, 15 December, Sunday

    Time Temperature Precipitation Wind Pressure Humidity
    00:00 +29°C° 0 mm 2 mps 725 mmHg 12%
    01:00 +28°C° 0 mm 2 mps 725 mmHg 12%
    02:00 +29°C° 0 mm 3 mps 724 mmHg 14%
    03:00 +28°C° 0 mm 3 mps 725 mmHg 15%
    04:00 +27°C° 0 mm 3 mps 725 mmHg 16%
    05:00 +26°C° 0 mm 3 mps 725 mmHg 18%
    06:00 +29°C° 0 mm 3 mps 725 mmHg 15%
    07:00 +33°C° 0 mm 3 mps 725 mmHg 13%
    08:00 +37°C° 0 mm 2 mps 725 mmHg 11%
    09:00 +38°C° 0 mm 3 mps 725 mmHg 11%
    10:00 +41°C° 0 mm 4 mps 725 mmHg 11%
    11:00 +43°C° 0 mm 4 mps 725 mmHg 11%
    12:00 +43°C° 0 mm 5 mps 725 mmHg 12%
    13:00 +43°C° 0 mm 5 mps 724 mmHg 13%
    14:00 +42°C° 0 mm 5 mps 723 mmHg 15%
    15:00 +39°C° 0.8 mm 7 mps 723 mmHg 24%
    16:00 +35°C° 0.8 mm 9 mps 723 mmHg 34%
    17:00 +32°C° 0.8 mm 11 mps 723 mmHg 44%
    18:00 +31°C° 1.5 mm 10 mps 723 mmHg 49%
    19:00 +28°C° 1.5 mm 8 mps 724 mmHg 54%
    20:00 +27°C° 1.5 mm 7 mps 724 mmHg 59%
    21:00 +27°C° 0.2 mm 8 mps 724 mmHg 55%
    22:00 +28°C° 0.2 mm 10 mps 725 mmHg 52%
    23:00 +28°C° 0.2 mm 11 mps 725 mmHg 48%

    Tomorrow, 16 December, Monday

    Time Temperature Precipitation Wind Pressure Humidity
    00:00 +28°C° 0 mm 9 mps 724 mmHg 50%
    01:00 +27°C° 0 mm 6 mps 723 mmHg 53%
    02:00 +27°C° 0 mm 4 mps 723 mmHg 55%
    03:00 +26°C° 0 mm 4 mps 723 mmHg 57%
    04:00 +26°C° 0 mm 5 mps 724 mmHg 59%
    05:00 +26°C° 0 mm 5 mps 724 mmHg 61%
    06:00 +27°C° 0 mm 5 mps 724 mmHg 55%
    07:00 +29°C° 0 mm 6 mps 725 mmHg 49%
    08:00 +32°C° 0 mm 6 mps 725 mmHg 43%
    09:00 +33°C° 0 mm 6 mps 725 mmHg 39%
    10:00 +34°C° 0 mm 6 mps 725 mmHg 35%
    11:00 +36°C° 0 mm 6 mps 725 mmHg 31%
    12:00 +36°C° 0.1 mm 6 mps 725 mmHg 30%
    13:00 +37°C° 0.1 mm 5 mps 724 mmHg 28%
    14:00 +37°C° 0.1 mm 5 mps 724 mmHg 26%
    15:00 +36°C° 0.1 mm 6 mps 724 mmHg 28%
    16:00 +35°C° 0.1 mm 8 mps 724 mmHg 29%
    17:00 +34°C° 0.1 mm 9 mps 724 mmHg 31%
    18:00 +33°C° 0.2 mm 8 mps 724 mmHg 33%
    19:00 +32°C° 0.2 mm 6 mps 724 mmHg 35%
    20:00 +30°C° 0.2 mm 5 mps 724 mmHg 37%
    21:00 +30°C° 0.1 mm 4 mps 724 mmHg 38%
    22:00 +29°C° 0.1 mm 4 mps 724 mmHg 40%
    23:00 +29°C° 0.1 mm 3 mps 725 mmHg 41%

    Day after tomorrow, 17 December, Tuesday

    Time Temperature Precipitation Wind Pressure Humidity
    00:00 +29°C° 0.1 mm 4 mps 724 mmHg 42%
    01:00 +28°C° 0.1 mm 4 mps 724 mmHg 42%
    02:00 +28°C° 0.1 mm 4 mps 724 mmHg 43%
    03:00 +28°C° 0 mm 4 mps 724 mmHg 41%
    04:00 +27°C° 0 mm 4 mps 724 mmHg 39%
    05:00 +27°C° 0 mm 4 mps 725 mmHg 37%
    06:00 +29°C° 0 mm 5 mps 725 mmHg 34%
    07:00 +32°C° 0 mm 7 mps 725 mmHg 31%
    08:00 +34°C° 0 mm 8 mps 726 mmHg 27%
    09:00 +38°C° 0 mm 8 mps 726 mmHg 22%
    10:00 +40°C° 0 mm 8 mps 726 mmHg 17%
    11:00 +44°C° 0 mm 8 mps 726 mmHg 11%
    12:00 +44°C° 0 mm 7 mps 725 mmHg 10%
    13:00 +45°C° 0 mm 7 mps 724 mmHg 9%
    14:00 +45°C° 0 mm 7 mps 724 mmHg 7%
    15:00 +45°C° 0 mm 6 mps 724 mmHg 7%
    16:00 +45°C° 0 mm 5 mps 724 mmHg 7%
    17:00 +45°C° 0 mm 5 mps 724 mmHg 7%
    18:00 +42°C° 0 mm 4 mps 724 mmHg 9%
    19:00 +39°C° 0 mm 3 mps 725 mmHg 11%
    20:00 +37°C° 0 mm 3 mps 725 mmHg 12%
    21:00 +35°C° 0 mm 5 mps 725 mmHg 23%
    22:00 +33°C° 0 mm 7 mps 725 mmHg 34%
    23:00 +29°C° 0 mm 9 mps 726 mmHg 45%

    18 December, Wednesday

    Time Temperature Precipitation Wind Pressure Humidity
    00:00 +28°C° 0 mm 9 mps 725 mmHg 50%
    01:00 +26°C° 0 mm 8 mps 725 mmHg 55%
    02:00 +24°C° 0 mm 7 mps 725 mmHg 60%
    03:00 +23°C° 0 mm 7 mps 725 mmHg 65%
    04:00 +22°C° 0 mm 6 mps 726 mmHg 69%
    05:00 +21°C° 0 mm 6 mps 726 mmHg 73%
    06:00 +23°C° 0 mm 5 mps 726 mmHg 65%
    07:00 +26°C° 0 mm 5 mps 726 mmHg 58%
    08:00 +28°C° 0 mm 5 mps 727 mmHg 50%
    09:00 +31°C° 0 mm 3 mps 726 mmHg 42%
    10:00 +35°C° 0 mm 2 mps 726 mmHg 33%
    11:00 +37°C° 0 mm 1 mps 726 mmHg 25%
    12:00 +40°C° 0 mm 3 mps 725 mmHg 20%
    13:00 +43°C° 0 mm 4 mps 725 mmHg 15%
    14:00 +46°C° 0 mm 6 mps 724 mmHg 11%
    15:00 +46°C° 0 mm 6 mps 724 mmHg 10%
    16:00 +46°C° 0 mm 6 mps 724 mmHg 10%
    17:00 +46°C° 0 mm 6 mps 723 mmHg 9%
    18:00 +45°C° 0 mm 5 mps 723 mmHg 10%
    19:00 +42°C° 0 mm 4 mps 723 mmHg 11%
    20:00 +39°C° 0 mm 3 mps 723 mmHg 12%
    21:00 +38°C° 0 mm 3 mps 723 mmHg 13%
    22:00 +37°C° 0 mm 4 mps 723 mmHg 13%
    23:00 +36°C° 0 mm 4 mps 723 mmHg 14%

    19 December, Thursday

    Time Temperature Precipitation Wind Pressure Humidity
    00:00 +35°C° 0 mm 5 mps 723 mmHg 18%
    01:00 +33°C° 0 mm 5 mps 723 mmHg 22%
    02:00 +30°C° 0 mm 6 mps 723 mmHg 26%
    03:00 +29°C° 0 mm 5 mps 723 mmHg 33%
    04:00 +28°C° 0 mm 5 mps 723 mmHg 39%
    05:00 +27°C° 0 mm 5 mps 723 mmHg 45%
    06:00 +29°C° 0 mm 5 mps 724 mmHg 41%
    07:00 +32°C° 0 mm 4 mps 724 mmHg 38%
    08:00 +33°C° 0 mm 4 mps 724 mmHg 34%
    09:00 +36°C° 0 mm 4 mps 724 mmHg 30%
    10:00 +38°C° 0 mm 3 mps 724 mmHg 25%
    11:00 +40°C° 0 mm 2 mps 724 mmHg 20%
    12:00 +42°C° 0 mm 3 mps 723 mmHg 18%
    13:00 +43°C° 0 mm 4 mps 723 mmHg 15%
    14:00 +45°C° 0 mm 5 mps 722 mmHg 13%
    15:00 +45°C° 0 mm 5 mps 722 mmHg 13%
    16:00 +45°C° 0 mm 6 mps 722 mmHg 12%
    17:00 +44°C° 0 mm 7 mps 722 mmHg 12%
    18:00 +39°C° 0 mm 8 mps 722 mmHg 23%
    19:00 +34°C° 0 mm 10 mps 723 mmHg 33%
    20:00 +29°C° 0 mm 11 mps 723 mmHg 44%
    21:00 +28°C° 0 mm 10 mps 724 mmHg 45%
    22:00 +27°C° 0 mm 9 mps 725 mmHg 46%
    23:00 +24°C° 0 mm 8 mps 726 mmHg 48%

    20 December, Friday

    Time Temperature Precipitation Wind Pressure Humidity
    00:00 +23°C° 0 mm 8 mps 725 mmHg 49%
    01:00 +23°C° 0 mm 7 mps 725 mmHg 51%
    02:00 +22°C° 0 mm 7 mps 725 mmHg 52%
    03:00 +21°C° 0 mm 7 mps 726 mmHg 56%
    04:00 +20°C° 0 mm 7 mps 726 mmHg 59%
    05:00 +18°C° 0 mm 7 mps 726 mmHg 63%
    06:00 +21°C° 0 mm 7 mps 727 mmHg 60%
    07:00 +22°C° 0 mm 7 mps 727 mmHg 57%
    08:00 +23°C° 0 mm 7 mps 727 mmHg 54%
    09:00 +26°C° 0 mm 7 mps 727 mmHg 49%
    10:00 +27°C° 0 mm 6 mps 727 mmHg 43%
    11:00 +29°C° 0 mm 6 mps 727 mmHg 38%
    12:00 +30°C° 0 mm 5 mps 727 mmHg 34%
    13:00 +33°C° 0 mm 4 mps 727 mmHg 30%
    14:00 +34°C° 0 mm 4 mps 726 mmHg 26%
    15:00 +34°C° 0 mm 4 mps 726 mmHg 25%
    16:00 +34°C° 0 mm 4 mps 726 mmHg 25%
    17:00 +34°C° 0 mm 3 mps 726 mmHg 24%
    18:00 +32°C° 0 mm 6 mps 727 mmHg 28%
    19:00 +31°C° 0 mm 8 mps 727 mmHg 31%
    20:00 +28°C° 0 mm 10 mps 727 mmHg 35%
    21:00 +26°C° 0 mm 10 mps 728 mmHg 40%
    22:00 +23°C° 0 mm 10 mps 728 mmHg 46%
    23:00 +21°C° 0 mm 10 mps 729 mmHg 51%
    Show more